Location: Malmö
(55.6090°N, 13.0007°E)
Time: 02:04:53
(UTC+01:00)

ISS - Pass Details

Date: 26 January 2021
Orbit: 417 x 422 km, 51.6° (Epoch: 06 March)

Event Time Altitude Azimuth Distance (km) Brightness Sun altitude
Rises 18:45:58 0° 254° (WSW) 2,373 1.6 -18.7°
Reaches altitude 10° 18:48:08 10° 247° (WSW) 1,510 0.2 -19.0°
Maximum altitude 18:51:21 42° 176° (S) 622 -3.0 -19.5°
Enters shadow 18:51:32 41° 166° (SSE) 627 -3.0 -19.5°
